Location: Gwatt
(46.7204°N, 7.6223°E)
Time: 22:42:43
(UTC+00:00)

Tiros 1 despin weight - Pass Details

Date: 30 January 2021
Orbit: 593 x 642 km, 48.2° (Epoch: 08 March)

Event Time Altitude Azimuth Distance (km) Brightness Sun altitude
Rises 16:52:04 0° 287° (WNW) 2,875 ? -4.3°
Reaches altitude 10° 16:54:29 10° 280° (W) 1,960 ? -4.7°
Maximum altitude 16:58:41 40° 211° (SSW) 890 ? -5.3°
Drops below altitude 10° 17:02:49 10° 142° (SE) 1,928 ? -6.0°
Sets 17:05:11 0° 135° (SE) 2,822 ? -6.4°
